Location: Unspecified
(0.0000°N, 0.0000°E)
Time: 05:04:27
(UTC+00:00)

Altair - Visible Passes

Search period start: 03 March 2024 00:00
Search period end: 13 March 2024 00:00
Orbit: 1501 x 1682 km, 47.2° (Epoch: 01 March)

Date Brightness Start Highest point End Pass type
(mag) Time Alt. Az. Time Alt. Az. Time Alt. Az.
03 Mar 8.8 03:29:08 10° S 03:37:16 31° SE 03:45:08 10° ENE visible
03 Mar 7.6 05:32:44 10° SW 05:41:49 54° NW 05:50:41 10° NNE visible
03 Mar 9.7 18:23:12 10° WNW 18:31:08 27° SW 18:39:16 10° S visible
04 Mar 8.9 03:06:53 18° S 03:12:02 28° SE 03:19:33 10° ENE visible
04 Mar 7.5 05:07:23 10° SW 05:16:38 61° NW 05:25:39 10° NNE visible
05 Mar 9.0 02:45:20 24° SE 02:46:47 25° SE 02:53:55 10° E visible
05 Mar 7.4 04:43:32 16° SW 04:51:28 68° NW 05:00:35 10° NNE visible
06 Mar 9.2 02:23:25 20° ESE 02:23:25 20° ESE 02:28:11 10° E visible
06 Mar 7.3 04:21:34 34° SW 04:26:17 76° NW 04:35:29 10° NE visible
07 Mar 9.6 02:01:11 13° E 02:01:11 13° E 02:02:20 10° E visible
07 Mar 7.3 03:59:19 64° SW 04:01:06 85° NW 04:10:21 10° NE visible
08 Mar 7.4 03:36:49 76° NE 03:36:49 76° NE 03:45:11 10° NE visible
08 Mar 8.7 05:34:56 10° W 05:40:36 18° NW 05:46:16 10° N visible
09 Mar 8.1 03:14:06 46° NE 03:14:06 46° NE 03:20:00 10° NE visible
09 Mar 8.5 05:12:12 17° WNW 05:15:21 20° NW 05:21:42 10° N visible
10 Mar 8.8 02:51:12 27° NE 02:51:12 27° NE 02:54:47 10° NE visible
10 Mar 8.4 04:49:17 23° NW 04:50:06 23° NW 04:57:00 10° N visible
11 Mar 9.4 02:28:08 16° NE 02:28:08 16° NE 02:29:31 10° NE visible
11 Mar 8.4 04:26:12 26° NW 04:26:12 26° NW 04:32:15 10° N visible
12 Mar 8.6 04:02:59 24° NNW 04:02:59 24° NNW 04:07:27 10° N visible
